Wind_Speed
23 24 24 24 24 26 26 27 29 31 30 29 29 29 33 35 35 36 34 32 27 27 24 19 19 17 8 5 3 5 10 14 17 11 16 18 19 15 9 15 15 17 18 16
15 16 18 21 23 25 24 24 26 28 31 29 28 27 25 30 34 35 39 35 33 29 26 21 20 19 18 3 5 1 4 10 15 23 18 18 18 18 19 15 17 13 13 12
14 14 16 15 15 18 24 26 24 26 29 31 30 25 20 20 28 33 34 37 35 30 28 24 24 22 20 12 8 5 5 8 10 22 28 24 22 23 23 25 19 15 17 17
11 10 10 12 15 14 15 21 24 24 26 28 31 29 27 19 17 23 29 30 29 31 30 30 26 25 22 13 7 9 5 7 13 7 25 21 23 27 28 27 28 22 23 21
19 18 16 13 13 11 17 16 17 24 24 24 31 32 30 29 18 19 24 24 30 32 36 27 23 27 24 21 12 8 9 8 7 4 13 16 18 21 24 29 32 31 27 19
23 22 22 21 20 16 16 16 18 17 21 25 26 32 34 31 27 21 22 25 26 32 33 29 33 29 22 13 11 10 8 8 6 6 13 14 14 15 16 21 26 23 19 19
24 26 25 26 25 20 20 19 19 18 18 22 28 28 32 32 30 29 26 25 22 27 29 27 26 17 21 22 20 16 13 12 8 5 15 18 16 13 16 16 19 18 18 19
35 30 28 26 26 24 22 19 19 15 19 20 22 29 27 32 34 34 33 31 28 24 38 29 36 30 29 32 20 21 17 15 15 9 8 21 20 15 17 18 18 18 17 19
35 36 35 31 30 29 22 22 22 21 19 18 22 21 30 30 32 36 36 34 32 26 23 24 28 35 38 32 31 27 24 19 18 15 10 13 24 15 17 17 16 15 16 20
40 36 34 36 38 35 32 26 25 23 24 19 18 24 23 28 32 34 39 40 36 33 31 27 27 26 25 23 20 19 17 21 18 12 12 5 27 21 18 20 19 16 16 18
44 43 41 38 37 38 37 35 30 28 27 26 21 22 26 28 29 33 36 38 39 36 36 33 31 27 23 20 20 14 17 18 21 13 11 9 22 25 18 20 21 19 21 19
46 44 44 43 38 38 39 40 39 34 33 29 25 25 24 29 32 32 32 35 37 37 39 36 32 28 26 26 21 18 13 13 24 16 15 11 18 25 23 19 20 20 20 21
50 45 44 45 44 42 41 41 41 42 38 35 31 28 26 26 30 35 33 32 35 38 41 37 34 34 33 27 17 18 18 14 23 22 15 15 18 23 21 16 18 20 18 20
52 52 49 47 49 48 42 41 41 40 40 40 35 28 29 27 27 32 35 34 34 35 40 40 42 36 33 30 25 24 22 19 20 25 19 18 16 20 15 12 5 15 16 22
54 51 52 50 50 49 46 42 40 40 42 38 35 28 33 28 25 25 31 33 35 35 36 42 43 44 39 37 32 29 24 23 26 29 27 22 21 21 20 16 22 14 17 22
54 50 51 51 53 48 47 44 41 40 45 42 37 32 35 29 25 25 26 29 31 33 35 38 44 45 47 44 39 34 32 28 30 31 35 27 25 24 22 23 21 14 15 26
58 54 52 49 52 53 44 44 41 41 43 41 40 35 36 33 29 26 27 25 25 28 31 35 40 44 47 50 45 40 38 36 33 40 33 32 30 24 28 23 26 19 16 20
63 58 57 52 55 49 47 47 45 42 44 39 43 40 37 32 26 26 25 25 20 24 28 32 35 38 41 45 48 48 45 42 41 39 38 38 37 35 31 30 30 26 20 20
63 61 61 58 53 49 55 51 48 45 46 41 46 42 37 33 27 24 25 25 26 23 23 24 29 35 36 40 43 43 44 47 44 43 40 36 44 42 37 33 34 33 28 25
63 62 64 58 53 49 53 51 49 47 48 42 45 44 38 33 28 25 25 26 27 24 24 25 28 31 34 38 40 43 44 46 49 49 47 42 40 44 45 36 36 38 39 36
62 61 61 57 53 52 55 52 52 50 50 45 44 43 40 36 31 25 23 25 25 24 25 26 27 27 30 34 38 40 43 45 47 49 53 51 50 45 46 46 40 37 36 40
57 60 60 60 59 58 56 53 51 54 53 52 49 44 41 39 34 25 24 25 24 21 21 21 21 26 29 31 33 35 38 42 47 46 50 55 56 53 53 51 47 45 42 39
53 60 63 63 61 62 55 53 55 60 57 57 54 52 49 43 37 27 25 24 23 22 22 21 19 19 25 27 28 30 34 35 38 44 48 50 58 57 57 56 54 52 51 50
53 58 65 64 62 59 55 52 57 63 62 60 58 57 53 46 38 31 25 23 21 22 21 20 19 19 19 24 25 26 28 29 33 37 40 44 49 51 57 62 61 60 60 59
58 61 66 65 60 62 58 56 57 61 65 60 55 55 51 47 38 35 26 24 22 22 19 18 19 21 20 19 19 21 23 25 28 30 33 36 38 39 41 44 51 56 58 59
64 63 65 70 69 61 57 55 53 59 65 62 55 55 53 48 43 38 28 26 25 22 19 17 19 21 19 21 22 23 25 26 30 34 37 36 35 36 37 38 40 44 47 49
Wind_Direction
264 265 264 262 259 259 258 257 254 252 254 255 254 248 241 239 233 230 230 236 238 245 255 245 259 278 271 303 317 20 48 214 208 206 179 178 185 192 201 196 195 212 221 230
266 267 267 268 266 261 259 256 251 247 247 251 251 254 248 241 238 231 227 227 235 242 250 232 241 262 279 284 281 276 43 20 236 208 206 203 214 204 209 220 211 234 239 232
269 267 268 271 275 264 253 251 251 248 244 245 249 242 245 244 238 236 235 232 238 244 250 219 235 260 266 275 270 262 348 353 348 213 213 215 220 223 230 231 239 241 246 250
281 284 283 278 272 275 272 255 251 250 248 243 245 245 226 234 239 231 231 234 230 238 241 228 231 256 249 271 254 268 290 338 344 217 211 222 231 230 236 237 246 254 253 250
265 274 279 280 276 274 272 270 257 246 246 245 242 241 240 236 236 236 228 227 219 221 237 248 237 237 243 268 256 288 284 307 324 261 212 218 224 229 232 236 244 252 253 239
268 266 268 269 270 266 277 280 272 263 246 239 242 238 242 242 236 231 232 228 231 225 231 222 223 242 255 252 241 282 284 280 270 320 221 217 217 229 230 238 240 238 219 217
266 268 267 269 267 263 272 285 276 269 258 249 240 234 240 235 233 222 226 234 232 225 225 228 231 225 240 250 262 272 283 281 231 269 222 210 214 222 214 215 218 210 199 199
267 259 264 267 264 259 262 275 269 272 259 253 250 240 235 235 229 230 224 224 231 228 218 230 225 226 235 243 261 266 277 238 234 259 264 213 216 221 210 197 196 189 192 188
264 263 258 256 257 251 253 261 264 265 267 258 250 246 235 235 233 234 230 223 225 221 222 228 227 234 242 253 256 269 269 219 223 239 269 223 212 214 202 197 203 196 199 197
262 261 259 257 256 252 252 253 257 258 261 258 259 247 242 235 232 232 232 227 225 229 237 243 245 246 248 247 243 249 236 230 218 224 282 274 210 210 208 211 216 223 219 218
260 260 260 259 256 253 250 249 246 249 255 257 263 264 251 245 238 234 235 232 232 228 231 238 239 242 234 237 233 238 233 229 212 211 282 283 214 208 213 214 221 228 236 243
260 259 257 257 256 256 250 246 244 245 249 253 256 260 258 245 241 239 237 237 233 231 232 233 236 234 226 229 235 241 231 236 214 220 240 248 213 208 217 219 223 232 239 246
258 256 256 254 252 250 248 245 244 244 247 249 249 260 257 258 245 238 237 238 236 232 230 227 227 226 231 230 226 232 241 240 222 219 225 231 207 203 216 223 241 241 234 209
260 257 255 252 247 248 249 248 245 243 246 249 246 253 254 257 256 242 238 237 237 237 233 229 225 227 227 223 233 216 235 241 226 213 216 214 204 198 206 226 242 221 211 197
259 256 251 247 244 244 245 245 243 238 238 245 244 246 246 255 261 257 239 237 236 235 233 230 229 225 224 228 236 241 240 238 222 218 207 216 203 202 208 223 226 237 205 198
258 252 248 243 239 237 239 242 239 237 237 242 242 241 239 256 256 260 244 239 236 238 232 229 228 226 223 229 234 232 232 238 228 222 221 215 206 210 213 222 218 221 220 214
257 244 241 236 236 234 234 238 235 232 234 241 240 240 238 247 258 252 237 234 239 237 234 230 229 228 225 224 230 232 229 230 233 228 229 219 210 217 211 215 228 224 237 228
249 241 237 231 233 229 231 232 230 228 227 236 243 240 239 244 257 251 235 227 233 238 232 227 228 228 229 229 231 234 229 226 230 233 229 225 217 226 229 225 231 230 240 233
242 235 233 232 231 223 225 224 225 224 226 231 237 240 237 239 252 250 242 232 226 221 227 225 227 226 226 228 228 230 230 227 225 233 230 230 228 230 239 238 236 238 241 237
233 227 226 230 228 224 224 220 222 221 223 227 235 238 239 240 243 241 239 242 238 230 229 226 225 226 224 226 228 231 231 229 229 227 234 232 231 233 231 238 240 239 242 246
223 220 219 223 223 220 223 217 215 217 220 221 226 233 233 239 237 240 233 238 236 234 235 236 233 225 225 229 229 231 234 233 233 232 231 237 238 236 234 232 236 241 242 246
219 215 214 215 219 217 219 218 211 212 216 220 221 225 233 238 232 235 231 233 234 234 237 240 240 235 227 226 229 231 234 235 235 236 236 236 239 240 240 238 241 244 244 247
217 213 213 212 213 215 217 216 207 206 210 216 221 227 231 234 231 229 226 224 228 235 239 246 246 241 234 231 229 232 233 234 236 237 238 240 240 242 243 241 242 247 250 254
216 214 209 208 211 213 215 213 210 207 208 216 218 222 226 228 230 229 226 218 230 239 240 245 251 251 239 233 234 236 237 241 242 242 243 242 242 244 247 247 249 253 254 255
214 212 211 207 209 211 211 211 207 206 205 214 219 224 225 227 224 227 222 231 232 239 241 238 246 253 255 250 247 247 249 254 257 258 256 253 249 248 249 246 247 248 249 250
211 212 208 206 207 209 210 212 210 209 206 207 216 222 226 223 221 220 216 229 235 236 238 247 253 247 251 256 254 253 254 257 260 261 261 260 259 256 253 252 251 251 250 248
Height
10895 10895 10896 10897 10898 10899 10900 10901 10903 10906 10907 10910 10913 10916 10920 10923 10928 10934 10938 10941 10944 10948 10951 10952 10952 10955 10957 10956 10956 10955 10954 10955 10956 10957 10960 10961 10962 10965 10968 10969 10972 10973 10975 10976
10890 10891 10891 10892 10893 10893 10895 10896 10896 10898 10901 10903 10907 10909 10912 10916 10920 10925 10930 10934 10938 10943 10946 10949 10949 10951 10952 10954 10953 10953 10952 10952 10951 10954 10956 10958 10960 10963 10965 10967 10969 10970 10971 10972
10886 10887 10887 10888 10887 10887 10888 10889 10891 10893 10895 10897 10900 10905 10907 10910 10913 10918 10922 10927 10932 10937 10940 10944 10945 10947 10949 10950 10951 10950 10950 10948 10947 10947 10951 10954 10958 10960 10962 10964 10965 10967 10968 10969
10883 10884 10883 10884 10884 10884 10883 10884 10886 10888 10889 10892 10894 10898 10903 10905 10908 10911 10915 10920 10927 10931 10933 10938 10941 10943 10945 10946 10948 10947 10947 10947 10945 10946 10947 10950 10953 10955 10957 10959 10961 10963 10963 10964
10881 10881 10881 10881 10880 10880 10880 10880 10880 10881 10884 10888 10888 10892 10896 10900 10904 10907 10910 10914 10919 10924 10927 10931 10935 10937 10940 10942 10944 10944 10945 10946 10945 10945 10946 10945 10947 10950 10952 10954 10956 10958 10960 10961
10876 10876 10877 10877 10876 10877 10876 10876 10876 10876 10878 10881 10882 10886 10889 10894 10899 10903 10904 10908 10912 10917 10921 10926 10929 10932 10935 10938 10939 10941 10942 10944 10944 10944 10944 10943 10944 10945 10947 10949 10951 10954 10956 10956
10869 10870 10871 10871 10871 10872 10872 10872 10871 10872 10873 10874 10876 10880 10883 10888 10893 10896 10899 10902 10906 10911 10915 10920 10923 10927 10930 10932 10934 10937 10938 10940 10940 10940 10941 10941 10942 10943 10945 10947 10949 10952 10954 10954
10860 10863 10864 10865 10864 10866 10867 10867 10867 10868 10868 10870 10871 10874 10877 10879 10885 10889 10892 10897 10900 10904 10909 10914 10918 10921 10923 10926 10928 10931 10934 10936 10937 10936 10937 10938 10938 10940 10942 10944 10947 10949 10952 10954
10850 10851 10855 10857 10857 10859 10861 10861 10862 10863 10863 10864 10866 10868 10869 10872 10876 10881 10886 10890 10894 10899 10903 10906 10911 10915 10918 10920 10923 10925 10927 10931 10933 10934 10933 10934 10937 10939 10942 10944 10947 10949 10951 10953
10839 10841 10844 10847 10848 10850 10853 10855 10855 10857 10858 10859 10860 10862 10864 10865 10867 10871 10876 10882 10888 10892 10896 10900 10904 10908 10912 10914 10918 10920 10922 10924 10928 10931 10931 10930 10934 10937 10939 10943 10946 10948 10950 10953
10826 10830 10835 10837 10837 10840 10844 10846 10848 10850 10851 10853 10856 10857 10859 10860 10861 10863 10867 10873 10880 10885 10889 10893 10898 10902 10906 10910 10913 10916 10918 10920 10924 10926 10929 10927 10930 10934 10937 10939 10942 10944 10946 10948
10813 10820 10822 10823 10828 10830 10832 10834 10838 10841 10843 10847 10850 10851 10853 10853 10855 10856 10859 10864 10870 10877 10882 10887 10891 10896 10900 10904 10908 10911 10915 10917 10920 10923 10926 10926 10927 10932 10934 10936 10939 10940 10940 10940
10800 10807 10808 10811 10816 10816 10819 10822 10828 10831 10834 10837 10842 10844 10845 10847 10847 10850 10853 10857 10861 10867 10873 10879 10883 10888 10894 10898 10902 10906 10909 10913 10916 10920 10922 10924 10925 10929 10932 10933 10934 10934 10934 10935
10785 10789 10793 10796 10800 10804 10810 10813 10818 10823 10825 10827 10832 10836 10838 10840 10839 10842 10846 10850 10854 10858 10863 10870 10876 10880 10885 10891 10895 10900 10904 10908 10912 10916 10919 10922 10924 10926 10929 10931 10930 10929 10932 10933
10766 10772 10775 10780 10785 10792 10798 10803 10807 10813 10814 10818 10822 10827 10829 10832 10834 10835 10838 10842 10846 10850 10854 10859 10865 10871 10877 10882 10887 10892 10897 10902 10907 10911 10914 10918 10921 10923 10925 10927 10929 10930 10930 10933
10745 10756 10758 10764 10769 10777 10784 10791 10797 10802 10804 10806 10812 10817 10821 10824 10827 10829 10831 10834 10837 10840 10844 10849 10854 10860 10866 10872 10878 10884 10890 10894 10899 10904 10908 10912 10915 10918 10920 10923 10925 10927 10928 10931
10724 10733 10740 10749 10751 10761 10773 10780 10785 10790 10794 10797 10802 10807 10812 10816 10819 10822 10824 10828 10830 10832 10835 10840 10845 10850 10856 10863 10868 10875 10881 10887 10891 10896 10900 10905 10909 10912 10915 10918 10921 10922 10924 10926
10701 10711 10720 10731 10732 10750 10760 10764 10772 10779 10784 10789 10791 10797 10803 10809 10813 10814 10818 10821 10823 10825 10827 10831 10836 10841 10847 10853 10860 10865 10870 10877 10882 10887 10892 10897 10902 10905 10909 10912 10916 10918 10920 10922
10677 10687 10699 10709 10722 10736 10737 10749 10759 10770 10775 10778 10780 10788 10795 10801 10806 10808 10811 10814 10816 10819 10821 10825 10829 10833 10838 10844 10849 10854 10860 10866 10872 10879 10883 10887 10893 10897 10901 10905 10908 10911 10914 10917
10653 10666 10680 10695 10707 10721 10726 10738 10749 10758 10764 10769 10773 10779 10786 10793 10798 10801 10804 10807 10809 10812 10815 10818 10821 10825 10829 10834 10839 10844 10849 10856 10862 10867 10872 10878 10883 10887 10891 10894 10898 10901 10905 10908
10632 10650 10667 10680 10693 10704 10708 10724 10734 10745 10752 10760 10763 10768 10777 10783 10790 10795 10797 10800 10802 10805 10808 10811 10814 10818 10822 10825 10830 10834 10838 10844 10849 10855 10860 10865 10870 10874 10878 10882 10886 10890 10893 10897
10618 10636 10652 10664 10674 10685 10694 10709 10725 10729 10740 10748 10754 10760 10766 10775 10783 10788 10790 10793 10796 10798 10801 10805 10807 10810 10813 10817 10821 10824 10828 10832 10837 10842 10848 10853 10857 10862 10866 10870 10874 10878 10882 10885
10605 10621 10633 10649 10658 10665 10682 10696 10707 10715 10726 10735 10745 10751 10758 10766 10776 10780 10784 10786 10789 10791 10794 10797 10800 10803 10806 10809 10812 10815 10819 10822 10826 10831 10835 10840 10845 10849 10853 10858 10861 10865 10868 10871
10591 10604 10618 10634 10644 10658 10669 10683 10694 10703 10716 10724 10733 10739 10748 10757 10768 10774 10778 10780 10783 10785 10789 10792 10794 10797 10798 10801 10804 10807 10810 10813 10816 10820 10823 10827 10831 10836 10840 10844 10847 10850 10852 10856
10578 10589 10602 10620 10632 10643 10655 10667 10681 10692 10704 10715 10725 10731 10740 10751 10760 10766 10771 10774 10777 10779 10784 10787 10789 10790 10792 10795 10798 10800 10802 10804 10807 10809 10811 10814 10818 10821 10823 10826 10829 10832 10836 10839
10560 10573 10589 10603 10617 10634 10648 10658 10671 10682 10693 10705 10715 10723 10731 10742 10751 10759 10764 10767 10769 10773 10777 10780 10782 10785 10787 10790 10791 10793 10795 10797 10799 10801 10802 10804 10806 10807 10810 10812 10814 10815 10817 10821